Newark, NJ

8:25 PM EDT on September 21, 2019 (GMT -0400)
Newark International

Weather History for KEWR - August, 2019

Change the Weather History Date:

Thursday, August 22, 2019

  Actual Average Record
Temperature  
Mean Temperature 82 °F 75 °F  
Max Temperature 91 °F 84 °F 94 °F (1964)
Min Temperature 71 °F 67 °F 51 °F (1982)
Degree Days  
Heating Degree Days 0 0  
Month to date heating degree days 0 0  
Since 1 June heating degree days 4 17  
Since 1 July heating degree days 0 0  
Cooling Degree Days 16 10  
Month to date cooling degree days 299 251  
Year to date cooling degree days 1118 949  
Since 1 June cooling degree days 1033 873  
Growing Degree Days 32 (Base 50)    
Moisture  
Dew Point 69 °F    
Average Humidity 72    
Maximum Humidity 93    
Minimum Humidity 44    
Precipitation  
Precipitation 1.13 in 0.11 in 1.70 in (1994)
Month to date precipitation 5.91 2.81  
Year to date precipitation 41.69 30.48  
Snow  
Snow 0.00 in 0.00 in 0.00 in (2002)
Month to date snowfall 0.0 0.0  
Since 1 July snowfall 0.0 0.0  
Snow Depth 0.00 in    
Sea Level Pressure  
Sea Level Pressure 29.87 in    
Wind  
Wind Speed 8 mph ()    
Max Wind Speed 35 mph    
Max Gust Speed 44 mph    
Visibility 9.3 miles    
Events Rain , Thunderstorm    
T = Trace of Precipitation, MM = Missing Value Source: Averaged Metar Reports

Daily Weather History Graph

Daily Weather History Graph

Search for Another Location

Airport or City:

Astronomy

Aug. 22, 2019 Rise Set
Actual Time 6:13 AM EDT 7:44 PM EDT
Civil Twilight 5:44 AM EDT 8:13 PM EDT
Nautical Twilight 5:10 AM EDT 8:48 PM EDT
Astronomical Twilight 4:33 AM EDT 9:24 PM EDT
Moon 11:31 PM EDT 12:48 PM EDT
Length of Visible Light 14h 28m
Length of Day
13h 31m
Waning Gibbous, 60% of the Moon is Illuminated
Aug 22
Waning Gibbous
Aug 23
Last Quarter
Aug 30
New
Sep 5
First Quarter
Sep 14
Full

Hourly Weather History & Observations

Time (EDT) Temp. Heat Index Dew Point Humidity Pressure Visibility Wind Dir Wind Speed Gust Speed Precip Events Conditions
12:51 AM 78.1 °F - 72.0 °F 81% 29.86 in 10.0 mi West 3.5 mph - N/A   Mostly Cloudy
1:51 AM 77.0 °F - 72.0 °F 84% 29.86 in 10.0 mi SW 8.1 mph - N/A   Mostly Cloudy
2:51 AM 75.9 °F - 72.0 °F 87% 29.84 in 10.0 mi SW 6.9 mph - N/A   Mostly Cloudy
3:51 AM 75.0 °F - 71.1 °F 87% 29.83 in 10.0 mi SW 6.9 mph - N/A   Scattered Clouds
4:51 AM 75.0 °F - 71.1 °F 87% 29.82 in 10.0 mi SW 5.8 mph - N/A   Mostly Cloudy
5:51 AM 75.0 °F - 71.1 °F 87% 29.83 in 10.0 mi WSW 9.2 mph 16.1 mph N/A   Mostly Cloudy
6:51 AM 73.9 °F - 71.1 °F 91% 29.86 in 10.0 mi SSW 6.9 mph - N/A   Mostly Cloudy
7:51 AM 75.9 °F - 71.1 °F 85% 29.87 in 10.0 mi SW 5.8 mph - N/A   Mostly Cloudy
8:51 AM 79.0 °F - 71.1 °F 77% 29.88 in 10.0 mi West 5.8 mph - N/A   Mostly Cloudy
9:51 AM 82.9 °F 87.0 °F 70.0 °F 65% 29.88 in 10.0 mi West 10.4 mph - N/A   Mostly Cloudy
10:51 AM 84.0 °F 87.8 °F 69.1 °F 61% 29.88 in 10.0 mi West 8.1 mph - N/A   Mostly Cloudy
11:51 AM 87.1 °F 89.9 °F 66.9 °F 51% 29.88 in 10.0 mi WNW 8.1 mph - N/A   Mostly Cloudy
12:51 PM 90.0 °F 92.8 °F 66.9 °F 46% 29.87 in 10.0 mi SW 12.7 mph 19.6 mph N/A   Mostly Cloudy
1:51 PM 91.0 °F 94.3 °F 66.9 °F 45% 29.87 in 10.0 mi West 13.8 mph 19.6 mph N/A   Mostly Cloudy
2:51 PM 90.0 °F 92.8 °F 66.9 °F 46% 29.86 in 10.0 mi SW 11.5 mph - N/A   Scattered Clouds
3:51 PM 91.0 °F 94.3 °F 66.9 °F 45% 29.85 in 10.0 mi WNW 12.7 mph - N/A   Scattered Clouds
4:51 PM 91.0 °F 93.8 °F 66.0 °F 44% 29.83 in 10.0 mi West 12.7 mph - N/A   Scattered Clouds
5:51 PM 90.0 °F 92.4 °F 66.0 °F 45% 29.83 in 10.0 mi West 10.4 mph - N/A   Mostly Cloudy
6:49 PM 84.2 °F 87.3 °F 68.0 °F 58% 29.84 in 10.0 mi North 11.5 mph - N/A   Mostly Cloudy
6:51 PM 84.9 °F 88.2 °F 68.0 °F 57% 29.84 in 10.0 mi North 10.4 mph - N/A   Mostly Cloudy
7:51 PM 84.0 °F 87.0 °F 68.0 °F 58% 29.85 in 10.0 mi NE 8.1 mph - N/A   Mostly Cloudy
8:28 PM 78.1 °F - 68.0 °F 71% 29.91 in 4.0 mi NW 31.1 mph 43.7 mph 0.00 in Rain , Thunderstorm Heavy Thunderstorms and Rain
8:39 PM 72.0 °F - 68.0 °F 87% 29.92 in 2.5 mi Variable 4.6 mph - 0.55 in Rain , Thunderstorm Heavy Thunderstorms and Rain
8:51 PM 72.0 °F - 69.1 °F 91% 29.91 in 8.0 mi NNE 10.4 mph - 0.71 in Rain , Thunderstorm Light Thunderstorms and Rain
9:01 PM 73.0 °F - 70.0 °F 90% 29.91 in 10.0 mi NE 9.2 mph - 0.00 in Rain , Thunderstorm Light Thunderstorms and Rain
9:18 PM 72.0 °F - 70.0 °F 93% 29.90 in 10.0 mi NNE 9.2 mph - 0.00 in   Mostly Cloudy
9:51 PM 73.0 °F - 71.1 °F 93% 29.94 in 5.0 mi NW 8.1 mph - 0.06 in Rain Rain
10:51 PM 73.9 °F - 71.1 °F 91% 29.91 in 9.0 mi Variable 3.5 mph - 0.10 in Rain Light Rain
11:51 PM 73.9 °F - 71.1 °F 91% 29.91 in 10.0 mi SE 3.5 mph - 0.14 in Rain Light Rain